Tracking 18980 objects as of 22-Feb-2018
HD Live streaming from Space Station
objects crossing your sky now

COSMOS 2453

Track COSMOS 2453 now!
10-day predictions
COSMOS 2453 is classified as:


NORAD ID: 35500
Int'l Code: 2009-036C
Perigee: 1,502.9 km
Apogee: 1,512.2 km
Inclination: 82.5 °
Period: 116.0 minutes
Semi major axis: 7878 km
RCS: 0.8796 m2 (medium)
Launch date: July 6, 2009
Source: Commonwealth of Independent States (former USSR) (CIS)
Launch site: PLESETSK MISSILE AND SPACE COMPLEX (PKMTR)

COSMOS 2453 is a Russian military satellite. Some experts believe the COSMOS 2453 could be part of Russia's Oko (Eye) orbital missile early warning network.
aabbcc
Your satellite tracking list
Your tracking list is empty




NASA's NSSDC Master Catalog

Two Line Element Set (TLE):
1 35500U 09036C   18051.72768800 -.00000012 +00000-0 -15744-3 0  9993
2 35500 082.4910 175.3684 0005901 300.8825 059.1670 12.41454280391073
Source of the keplerian elements: AFSPC